When you browse on this site, cookies collect data to enhance your experience and personalize the content and advertising you see.
Visit our Privacy Policy to learn more. By continuing to use the site, you agree to this use of cookies and data.

Hourly Weather Bolgatanga

Today, 3 July, Friday

Time Temperature Precipitation Wind Pressure Humidity
00:00 +27°C° 0 mm 0 mps 742 mmHg 69%
01:00 +29°C° 0 mm 1 mps 741 mmHg 71%
02:00 +29°C° 0 mm 1 mps 741 mmHg 72%
03:00 +29°C° 0 mm 1 mps 741 mmHg 74%
04:00 +28°C° 0 mm 2 mps 741 mmHg 76%
05:00 +28°C° 0 mm 2 mps 741 mmHg 78%
06:00 +27°C° 0 mm 3 mps 741 mmHg 80%
07:00 +29°C° 0 mm 3 mps 741 mmHg 75%
08:00 +30°C° 0 mm 4 mps 742 mmHg 70%
09:00 +32°C° 0 mm 4 mps 742 mmHg 64%
10:00 +34°C° 0 mm 4 mps 741 mmHg 58%
11:00 +36°C° 0 mm 4 mps 741 mmHg 52%
12:00 +37°C° 0 mm 4 mps 741 mmHg 46%
13:00 +38°C° 0 mm 3 mps 740 mmHg 42%
14:00 +39°C° 0 mm 2 mps 740 mmHg 38%
15:00 +40°C° 0 mm 2 mps 739 mmHg 34%
16:00 +39°C° 0 mm 1 mps 739 mmHg 37%
17:00 +37°C° 0 mm 1 mps 738 mmHg 39%
18:00 +37°C° 0 mm 1 mps 738 mmHg 41%
19:00 +35°C° 0.7 mm 1 mps 739 mmHg 48%
20:00 +33°C° 0.7 mm 1 mps 740 mmHg 55%
21:00 +31°C° 0.7 mm 2 mps 740 mmHg 63%
22:00 +31°C° 0.8 mm 2 mps 740 mmHg 67%
23:00 +30°C° 0.8 mm 2 mps 741 mmHg 72%

Tomorrow, 4 July, Saturday

Time Temperature Precipitation Wind Pressure Humidity
00:00 +29°C° 0.8 mm 2 mps 741 mmHg 76%
01:00 +29°C° 0.1 mm 2 mps 741 mmHg 77%
02:00 +29°C° 0.1 mm 2 mps 740 mmHg 78%
03:00 +29°C° 0.1 mm 2 mps 740 mmHg 79%
04:00 +28°C° 0.1 mm 3 mps 740 mmHg 80%
05:00 +28°C° 0.1 mm 4 mps 740 mmHg 80%
06:00 +28°C° 0.1 mm 5 mps 740 mmHg 81%
07:00 +28°C° 0 mm 5 mps 740 mmHg 77%
08:00 +29°C° 0 mm 5 mps 741 mmHg 74%
09:00 +30°C° 0 mm 5 mps 741 mmHg 71%
10:00 +32°C° 0 mm 5 mps 741 mmHg 66%
11:00 +34°C° 0 mm 4 mps 742 mmHg 60%
12:00 +35°C° 0 mm 4 mps 742 mmHg 54%
13:00 +35°C° 0 mm 4 mps 741 mmHg 53%
14:00 +36°C° 0 mm 4 mps 740 mmHg 52%
15:00 +36°C° 0 mm 4 mps 740 mmHg 51%
16:00 +35°C° 0 mm 4 mps 740 mmHg 53%
17:00 +34°C° 0 mm 4 mps 740 mmHg 56%
18:00 +33°C° 0 mm 4 mps 740 mmHg 59%
19:00 +31°C° 0.9 mm 3 mps 740 mmHg 64%
20:00 +30°C° 0.9 mm 3 mps 741 mmHg 70%
21:00 +29°C° 0.9 mm 3 mps 741 mmHg 75%
22:00 +28°C° 0.7 mm 3 mps 741 mmHg 77%
23:00 +28°C° 0.7 mm 3 mps 741 mmHg 78%

Day after tomorrow, 5 July, Sunday

Time Temperature Precipitation Wind Pressure Humidity
00:00 +27°C° 0.7 mm 3 mps 741 mmHg 80%
01:00 +27°C° 0 mm 3 mps 741 mmHg 80%
02:00 +27°C° 0 mm 4 mps 741 mmHg 80%
03:00 +27°C° 0 mm 4 mps 741 mmHg 80%
04:00 +27°C° 0 mm 4 mps 741 mmHg 82%
05:00 +26°C° 0 mm 4 mps 741 mmHg 84%
06:00 +26°C° 0 mm 4 mps 741 mmHg 85%
07:00 +27°C° 0 mm 4 mps 742 mmHg 83%
08:00 +27°C° 0 mm 4 mps 742 mmHg 80%
09:00 +28°C° 0 mm 4 mps 743 mmHg 77%
10:00 +28°C° 0 mm 4 mps 743 mmHg 75%
11:00 +29°C° 0 mm 3 mps 743 mmHg 72%
12:00 +29°C° 0 mm 3 mps 743 mmHg 70%
13:00 +30°C° 0 mm 3 mps 742 mmHg 67%
14:00 +30°C° 0 mm 3 mps 742 mmHg 65%
15:00 +31°C° 0 mm 3 mps 741 mmHg 63%
16:00 +31°C° 0 mm 3 mps 741 mmHg 64%
17:00 +31°C° 0 mm 2 mps 741 mmHg 64%
18:00 +30°C° 0 mm 2 mps 741 mmHg 65%
19:00 +30°C° 0 mm 2 mps 741 mmHg 69%
20:00 +29°C° 0 mm 2 mps 742 mmHg 72%
21:00 +28°C° 0 mm 2 mps 742 mmHg 76%
22:00 +27°C° 0 mm 2 mps 742 mmHg 78%
23:00 +27°C° 0 mm 2 mps 742 mmHg 79%

6 July, Monday

Time Temperature Precipitation Wind Pressure Humidity
00:00 +27°C° 0 mm 2 mps 742 mmHg 81%
01:00 +26°C° 0 mm 2 mps 742 mmHg 82%
02:00 +26°C° 0 mm 2 mps 742 mmHg 83%
03:00 +26°C° 0 mm 1 mps 741 mmHg 83%
04:00 +26°C° 0 mm 2 mps 741 mmHg 84%
05:00 +26°C° 0 mm 2 mps 742 mmHg 86%
06:00 +25°C° 0 mm 2 mps 742 mmHg 87%
07:00 +27°C° 0 mm 2 mps 742 mmHg 80%
08:00 +28°C° 0 mm 3 mps 743 mmHg 73%
09:00 +30°C° 0 mm 3 mps 743 mmHg 66%
10:00 +33°C° 0 mm 3 mps 743 mmHg 60%
11:00 +34°C° 0 mm 3 mps 742 mmHg 53%
12:00 +36°C° 0 mm 3 mps 742 mmHg 46%
13:00 +36°C° 0 mm 3 mps 741 mmHg 44%
14:00 +37°C° 0 mm 3 mps 740 mmHg 41%
15:00 +38°C° 0 mm 2 mps 740 mmHg 39%
16:00 +37°C° 0 mm 2 mps 740 mmHg 42%
17:00 +36°C° 0 mm 2 mps 740 mmHg 44%
18:00 +35°C° 0 mm 2 mps 739 mmHg 47%
19:00 +34°C° 0 mm 2 mps 740 mmHg 51%
20:00 +32°C° 0 mm 2 mps 740 mmHg 54%
21:00 +31°C° 0 mm 3 mps 741 mmHg 58%
22:00 +30°C° 0 mm 3 mps 741 mmHg 61%
23:00 +30°C° 0 mm 3 mps 741 mmHg 64%

7 July, Tuesday

Time Temperature Precipitation Wind Pressure Humidity
00:00 +29°C° 0 mm 3 mps 741 mmHg 67%
01:00 +29°C° 0 mm 3 mps 741 mmHg 69%
02:00 +29°C° 0 mm 3 mps 741 mmHg 71%
03:00 +28°C° 0 mm 3 mps 740 mmHg 73%
04:00 +28°C° 0 mm 3 mps 740 mmHg 74%
05:00 +28°C° 0 mm 3 mps 741 mmHg 75%
06:00 +27°C° 0 mm 3 mps 741 mmHg 77%
07:00 +29°C° 0 mm 3 mps 741 mmHg 72%
08:00 +30°C° 0 mm 4 mps 741 mmHg 67%
09:00 +32°C° 0 mm 4 mps 742 mmHg 63%
10:00 +34°C° 0 mm 4 mps 741 mmHg 57%
11:00 +36°C° 0 mm 3 mps 741 mmHg 50%
12:00 +37°C° 0 mm 3 mps 740 mmHg 44%
13:00 +38°C° 0 mm 3 mps 740 mmHg 41%
14:00 +39°C° 0 mm 2 mps 739 mmHg 39%
15:00 +39°C° 0 mm 2 mps 738 mmHg 36%
16:00 +38°C° 0 mm 2 mps 738 mmHg 39%
17:00 +37°C° 0 mm 2 mps 738 mmHg 42%
18:00 +36°C° 0 mm 3 mps 738 mmHg 46%
19:00 +35°C° 0 mm 3 mps 739 mmHg 49%
20:00 +34°C° 0 mm 4 mps 739 mmHg 53%
21:00 +33°C° 0 mm 4 mps 740 mmHg 57%
22:00 +32°C° 0.1 mm 4 mps 740 mmHg 61%
23:00 +30°C° 0.1 mm 4 mps 740 mmHg 65%

8 July, Wednesday

Time Temperature Precipitation Wind Pressure Humidity
00:00 +30°C° 0.1 mm 4 mps 740 mmHg 69%
01:00 +29°C° 0.2 mm 4 mps 740 mmHg 71%
02:00 +29°C° 0.2 mm 4 mps 740 mmHg 73%
03:00 +28°C° 0.2 mm 4 mps 739 mmHg 75%
04:00 +28°C° 0 mm 4 mps 740 mmHg 76%
05:00 +28°C° 0 mm 4 mps 740 mmHg 77%
06:00 +28°C° 0 mm 4 mps 740 mmHg 78%
07:00 +29°C° 0 mm 4 mps 740 mmHg 75%
08:00 +30°C° 0 mm 4 mps 741 mmHg 71%
09:00 +30°C° 0 mm 5 mps 741 mmHg 67%
10:00 +33°C° 0 mm 4 mps 741 mmHg 62%
11:00 +34°C° 0 mm 4 mps 741 mmHg 57%
12:00 +36°C° 0 mm 4 mps 740 mmHg 51%
13:00 +36°C° 0 mm 4 mps 740 mmHg 48%
14:00 +37°C° 0 mm 3 mps 739 mmHg 45%
15:00 +38°C° 0 mm 3 mps 739 mmHg 42%
16:00 +37°C° 0 mm 3 mps 739 mmHg 45%
17:00 +36°C° 0 mm 3 mps 739 mmHg 48%
18:00 +36°C° 0 mm 3 mps 739 mmHg 51%
19:00 +34°C° 0.4 mm 3 mps 739 mmHg 56%
20:00 +33°C° 0.4 mm 3 mps 739 mmHg 62%
21:00 +30°C° 0.4 mm 3 mps 740 mmHg 68%
22:00 +30°C° 0.4 mm 3 mps 740 mmHg 71%
23:00 +29°C° 0.4 mm 3 mps 740 mmHg 74%
Show more